Location: *
(52.1117°N, 8.1606°E)
Time: 19:55:34
(UTC+00:00)

Daily predictions for brighter satellites

Satellite Brightness Start Highest point End
(mag) Time Altitude Azimuth Time Altitude Azimuth Time Altitude Azimuth
Cosmos 2227 Rocket 3.1 17:51:30 10° SSE 17:56:04 26° ESE 18:00:39 10° NE
FREGAT/IRIS 3.8 17:53:54 10° ESE 17:56:11 22° ENE 17:58:29 10° NNE
BREEZE-M DEB (TANK) 3.2 17:55:05 10° W 17:59:01 82° S 18:06:36 10° E
Cosmos 1300 Rocket 4.1 17:56:44 10° SSW 18:01:01 63° WNW 18:05:20 10° N
CZ-4C R/B 3.9 17:57:38 10° WNW 18:02:54 31° N 18:09:03 10° NE
Cosmos 2219 3.5 17:57:37 10° S 18:03:03 45° ESE 18:08:30 10° NE
Meteor 2-9 Rocket 4.4 17:57:38 10° SSW 18:03:21 84° WNW 18:08:57 10° NNE
Cosmos 1190 Rocket 4.0 17:58:05 10° NNW 18:03:25 74° ENE 18:08:40 10° SSE
Cosmos 614 Rocket 4.0 17:58:20 10° NNW 18:03:36 79° ENE 18:08:47 10° SSE
CZ-2D R/B 3.2 18:00:08 10° SSE 18:03:56 76° ENE 18:07:45 10° N
NOSS 3-4 (A) 4.5 17:58:04 10° NW 18:04:51 59° SW 18:12:17 10° SSE
NOSS 3-4 (C) 4.5 17:58:10 10° NW 18:04:58 59° SW 18:12:23 10° SSE
Cosmos 2297 Rocket 2.9 18:01:02 10° SSE 18:05:57 31° ESE 18:10:53 10° NE
COSMO-SKYMED 1 3.0 18:02:31 10° N 18:06:52 69° WNW 18:11:11 10° SSW
SJ-6B 3.8 18:06:48 10° SE 18:10:22 30° ENE 18:13:55 10° N
Nadezhda 1 Rocket 3.9 18:06:08 10° S 18:12:12 79° E 18:18:20 10° NNE
MONITOR-E 4.1 18:10:00 10° SSE 18:12:43 51° ENE 18:15:28 10° N
Cosmos 1295 Rocket 4.4 18:06:32 10° N 18:12:45 74° ENE 18:18:50 10° SSE
Okean 1-7 Rocket 3.8 18:08:39 10° N 18:13:01 51° ENE 18:17:23 10° SSE
H-2A R/B 2.9 18:10:03 10° ESE 18:14:24 31° ENE 18:18:50 10° N
CZ-4 R/B 3.2 18:11:50 10° SSW 18:15:28 35° W 18:19:12 10° NNW
SL-8 R/B 4.0 18:12:38 10° WSW 18:17:19 57° S 18:21:34 13° ESE
In-Cosmos 22 4.1 18:12:10 10° N 18:17:32 65° ENE 18:22:59 10° SSE
Ariane Rocket 3.1 18:17:33 10° SSE 18:22:38 84° WSW 18:27:45 10° NNW
HJ-1C 3.3 18:20:17 10° SSE 18:23:39 81° ENE 18:27:04 10° NNW
Cosmos 405 Rocket 3.1 18:21:35 10° SSE 18:25:03 38° E 18:28:34 10° NNE
USA 234 3.4 18:20:04 10° ENE 18:26:40 82° NNW 18:33:15 10° WSW
ASTEX 1 3.5 18:22:43 10° NNE 18:27:32 54° E 18:32:18 10° S
Cosmos 389 Rocket 2.5 18:24:24 10° NNW 18:27:51 81° W 18:31:16 10° S
Cosmos 1674 3.4 18:25:01 10° N 18:28:25 32° ENE 18:31:14 13° SE
Cosmos 1455 Rocket 3.7 18:24:31 10° SSE 18:28:34 35° E 18:32:39 10° NNE
Cosmos 1544 Rocket 4.4 18:24:45 10° SSE 18:28:37 30° E 18:32:31 10° NNE
DMSP B5D1-3 4.5 18:23:30 10° NNE 18:28:39 83° ESE 18:33:45 10° SSW
Lacrosse 5 rocket 1.8 18:26:27 10° SSW 18:29:44 32° SE 18:32:25 14° ENE
Cosmos 407 Rocket 3.9 18:25:24 10° NNW 18:30:29 65° WSW 18:35:33 10° S
MOS 1 4.3 18:28:03 10° SSE 18:33:45 82° ENE 18:39:28 10° NNW
Cosmos 2237 Rocket 2.8 18:28:33 10° NW 18:34:10 59° WSW 18:39:44 10° SSE
Cosmos 1437 Rocket 3.0 18:32:52 10° N 18:36:33 45° ENE 18:39:44 13° SE
Cosmos 2333 Rocket 4.5 18:32:11 10° NW 18:36:46 25° WSW 18:41:20 10° SSW
USA 186 2.0 18:33:31 10° SSE 18:36:52 55° ENE 18:40:12 10° N
Cosmos 1441 Rocket 4.3 18:33:16 10° SSW 18:36:56 48° WNW 18:40:36 10° N
ISS -3.1 18:35:49 10° SW 18:38:55 36° SSE 18:40:29 22° ESE
Cosmos 2056 Rocket 3.6 18:33:46 10° S 18:39:06 61° ESE 18:44:25 10° NNE
Cosmos 1939 Rocket 3.7 18:36:12 10° S 18:39:58 52° W 18:43:47 10° NNW
ERBS 2.9 18:37:22 10° WNW 18:40:40 50° SW 18:43:05 17° SE
Cosmos 1140 Rocket 3.7 18:38:34 10° NNW 18:43:45 73° WSW 18:48:52 10° SSE
Cosmos 1626 Rocket 4.0 18:40:12 10° N 18:44:16 38° ENE 18:47:01 18° SE
SAR-Lupe-2 3.6 18:41:02 10° NNE 18:44:34 54° ESE 18:48:04 10° S
Cosmos 1461 4.5 18:41:20 10° W 18:44:58 33° NW 18:48:36 10° NNE
Meteor 1-15 Rocket 4.3 18:40:14 10° S 18:46:02 77° E 18:51:57 10° NNE
Meteor 2-17 Rocket 4.4 18:41:32 10° N 18:47:39 87° E 18:53:43 10° S
Meteor 1-24 Rocket 3.9 18:42:41 10° N 18:48:26 58° ENE 18:54:19 10° SSE
Cosmos 1624 Rocket 3.9 18:44:56 10° SSW 18:50:06 75° ESE 18:55:20 10° NNE
Cosmos 1741 Rocket 4.3 18:47:37 10° NNW 18:52:51 51° ENE 18:56:13 21° SE
Cosmos 1954 Rocket 4.1 18:49:09 10° NNW 18:54:24 78° WSW 18:59:34 10° SSE
Okean 1 Rocket 4.4 18:50:47 10° SW 18:54:56 42° WNW 18:59:09 10° N
Cosmos 1805 3.5 18:54:47 10° SSE 18:58:29 43° E 19:02:12 10° NNE
Spot 2 Rocket 4.5 18:57:28 22° E 18:59:23 29° ENE 19:03:40 10° N
EO 1 Delta rocket 4.5 18:56:17 10° S 19:02:21 72° W 19:07:21 10° NNW
CZ-2C R/B 4.4 18:59:49 10° NE 19:02:08 15° ENE 19:02:08 15° ENE
Cosmos 1603 4.3 18:58:09 10° NNW 19:03:32 42° NE 19:06:19 25° ESE
Cosmos 1602 Rocket 3.7 19:02:32 10° N 19:06:48 51° ENE 19:08:44 29° SE
KORONAS-FOTON 3.6 19:03:11 10° N 19:06:59 73° ENE 19:09:09 24° SSE
Cosmos 1626 3.2 19:04:23 10° N 19:07:34 27° ENE 19:07:34 27° ENE
SL-16 R/B 2.3 19:02:19 10° NNW 19:08:01 77° WSW 19:12:43 15° SSE
Cosmos 2181 Rocket 4.0 19:01:57 10° S 19:08:14 83° E 19:14:40 10° NNE
GEOS 3 Rocket 4.1 19:05:53 14° SSE 19:10:08 55° SW 19:15:11 10° NW
Resurs 1-3 3.6 19:08:41 26° SE 19:10:57 60° ENE 19:15:18 10° N
Lacrosse 5 3.8 19:07:41 10° S 19:08:27 13° SSE 19:08:27 13° SSE
Meteor 1-4 Rocket 4.2 19:09:58 10° NNW 19:13:10 32° W 19:16:19 10° SSW
Cosmos 864 Rocket 4.5 19:09:12 10° N 19:15:29 89° W 19:21:47 10° S
Cosmos 2366 rocket 4.1 19:10:10 10° N 19:16:35 85° W 19:22:56 10° S
Cosmos 2218 Rocket 4.1 19:12:29 10° NNW 19:18:53 78° W 19:25:11 10° S
Cosmos 1733 3.4 19:23:18 47° E 19:23:18 47° E 19:26:52 10° NNE
Cosmos 1821 Rocket 4.2 19:17:46 10° N 19:23:44 49° ENE 19:26:17 31° SE
SL-8 Rocket 4.4 19:18:05 10° NNW 19:24:12 62° W 19:30:14 10° S
SPOT 3 Rocket 3.9 19:19:47 10° S 19:24:53 63° WSW 19:30:02 10° NNW
ARGOS 3.1 19:20:36 16° SSE 19:24:59 86° WSW 19:30:26 10° NNW
RESURS DK-1 2.3 19:20:51 10° NNW 19:25:01 88° SW 19:26:21 42° SSE
Cosmos 2082 3.6 19:20:01 10° SSW 19:25:43 71° ESE 19:31:26 10° NNE
Meteor 2-5 Rocket 4.3 19:21:19 10° NNW 19:27:04 60° W 19:32:52 10° S
Resurs 01 Rocket 1.6 19:26:30 39° SE 19:28:02 68° ENE 19:32:28 10° N
Cosmos 1452 Rocket 3.4 19:27:56 10° S 19:33:07 66° ESE 19:38:21 10° NNE
CZ-2C R/B 3.1 19:30:52 29° SSE 19:33:42 78° ENE 19:39:24 10° NNW
Meteor 1-22 Rocket 4.3 19:27:46 10° S 19:33:52 79° E 19:39:59 10° NNE
CZ-2C R/B 4.1 19:32:45 10° N 19:37:10 60° WNW 19:41:31 10° SSW
MetOp-A 4.0 19:34:27 30° SSE 19:37:11 83° ENE 19:42:35 10° NNW
Cosmos 2227 Rocket 2.5 19:34:02 10° SW 19:39:40 68° NW 19:45:22 10° NNE
Cosmos 2084 Rocket 3.9 19:35:35 10° WSW 19:40:01 66° NW 19:43:56 13° NE
SL-14 R/B 3.1 19:36:32 10° N 19:40:31 74° ENE 19:40:46 71° ESE
SJ-6B 4.5 19:41:14 10° SSW 19:44:58 33° W 19:48:41 10° NNW
Cosmos 2219 4.5 19:41:51 10° WSW 19:47:18 42° NW 19:52:46 10° NNE
Cosmos 1766 3.9 19:44:26 10° SSW 19:48:17 54° WNW 19:52:09 10° N
ADEOS Rocket 3.5 19:40:53 10° NNE 19:48:20 84° ESE 19:56:09 10° SSW
Meteor 2-12 Rocket 4.4 19:42:30 10° N 19:48:38 71° ENE 19:50:51 41° SSE
Cosmos 2297 Rocket 2.8 19:44:10 10° SW 19:49:44 57° NW 19:55:20 10° NNE
CZ-4C R/B 3.7 19:47:08 10° NW 19:53:09 38° NNE 19:56:55 24° ENE
H-2A R/B 2.8 19:49:53 16° SSW 19:53:39 48° W 19:58:36 10° NNW
Cosmos 2263 Rocket 4.3 20:01:44 12° NE 20:01:44 12° NE 20:02:17 10° NE
SL-8 R/B 4.4 19:55:01 10° W 19:59:28 39° SSW 19:59:31 39° SSW
SL-08 RB Rocket 4.3 19:58:55 31° SSW 20:00:54 54° W 20:05:31 10° NNW
Cosmos 1943 3.1 20:01:15 10° NNW 20:06:59 77° ENE 20:07:51 63° ESE
Lacrosse 5 rocket 1.8 20:05:01 10° WSW 20:08:06 54° WNW 20:08:06 54° WNW
USA 234 3.7 20:05:27 24° ENE 20:09:27 59° N 20:15:52 10° W
BREEZE M DEB (TANK) 3.3 20:10:29 10° W 20:12:30 42° SW 20:12:30 42° SW
SPOT 5 3.7 20:14:48 40° NE 20:14:48 40° NE 20:19:02 10° N
ISS -1.5 20:12:08 10° W 20:13:24 21° W 20:13:24 21° W
Cosmos 1953 Rocket 4.0 20:11:23 10° N 20:15:05 56° NNE 20:15:05 56° NNE
Cosmos 1934 Rocket 3.8 20:13:08 10° N 20:19:18 78° E 20:20:15 64° SE
ERS-1 Rocket 3.2 20:20:57 54° NE 20:20:57 54° NE 20:25:25 10° N
Terra 3.0 20:25:43 31° NE 20:25:43 31° NE 20:28:54 10° N
Cosmos 1470 4.2 20:26:31 33° N 20:26:31 33° N 20:28:50 10° N
Cosmos 1825 Rocket 4.1 20:25:17 10° NNW 20:29:01 57° WNW 20:29:01 57° WNW
Cosmos 1271 Rocket 4.5 20:28:08 10° N 20:30:01 28° N 20:30:01 28° N
Meteor 1-21 Rocket 4.5 20:28:40 10° NNW 20:34:34 69° W 20:35:38 57° SSW
USA 245 4.2 20:36:02 74° SSW 20:36:30 80° WSW 20:41:50 10° NNW
Spot 2 Rocket 4.0 20:37:40 50° WSW 20:38:07 52° W 20:43:04 10° NNW
Cosmos 1626 4.1 20:39:37 10° NNW 20:42:09 27° WNW 20:42:09 27° WNW
CZ-2C R/B 2.8 20:38:42 10° NNE 20:43:38 70° NNE 20:43:38 70° NNE
Cosmos 1486 Rocket 4.3 20:40:07 10° NNW 20:44:38 64° N 20:44:38 64° N
Cosmos 1241 Rocket 4.3 20:39:58 10° NW 20:46:19 89° SW 20:46:25 87° S
Cosmos 1603 4.4 20:42:22 10° NW 20:47:46 46° WSW 20:48:13 45° SW
SPOT 1/Viking Rocket 3.8 20:54:02 64° NW 20:54:02 64° NW 20:58:29 10° NNW
Meteor 1-11 4.5 20:47:43 10° N 20:52:27 60° NNE 20:52:27 60° NNE
Cosmos 968 Rocket 4.3 20:56:11 10° NNW 21:00:07 47° N 21:00:07 47° N
Cosmos 2285 Rocket 4.0 20:57:06 10° NNW 21:03:17 81° NNE 21:03:17 81° NNE
Resurs 01 Rocket 4.0 21:04:04 16° WSW 21:04:59 17° W 21:07:59 10° NW
Cosmos 1605 Rocket 4.0 21:00:27 10° NNW 21:06:49 75° W 21:06:49 75° W
Cosmos 2082 Rocket 4.1 21:17:05 10° NNW 21:21:17 20° NNE 21:21:51 20° NE
Cosmos 2100 Rocket 4.4 21:19:49 10° N 21:24:56 57° NNE 21:24:56 57° NNE
Cosmos 2263 Rocket 3.4 21:43:23 36° NNE 21:43:23 36° NNE 21:46:45 10° NNE
CZ-4C R/B 2.9 21:35:45 10° NW 21:42:04 75° N 21:42:04 75° N
Cosmos 2173 Rocket 4.5 21:38:32 10° N 21:43:33 58° N 21:43:33 58° N
USA 234 3.5 21:52:48 66° NNW 21:52:48 66° NNW 21:58:41 10° WNW
Cosmos 1833 Rocket 4.2 21:47:43 10° NNW 21:51:35 30° NNE 21:51:35 30° NNE
COSMOS 2406 4.4 21:51:00 10° NNW 21:54:52 40° N 21:54:52 40° N
Terra 3.9 22:04:36 23° NW 22:04:36 23° NW 22:06:43 10° NNW
Mayak 1.9 22:28:36 10° N 22:28:47 11° N 22:28:47 11° N
SJ 16-02 4.3 22:50:17 10° N 22:51:02 14° N 22:51:02 14° N
Cosmos 2082 Rocket 3.9 23:00:48 10° NNW 23:03:40 30° NNW 23:03:40 30° NNW
Cosmos 2263 Rocket 4.4 23:25:03 19° NW 23:26:11 20° NNW 23:30:18 10° NNE
SL-16 R/B 4.1 23:28:50 27° NE 23:28:58 27° NE 23:34:05 10° N
CZ-4C R/B 4.5 23:24:34 10° NW 23:27:14 22° WNW 23:27:14 22° WNW
ATLAS CENTAUR R/B 4.4 23:40:57 17° NNE 23:40:57 17° NNE 23:42:45 10° NE
Cosmos 2278 Rocket 3.9 23:54:10 29° NNE 23:54:10 29° NNE 23:56:54 10° NNE
